User: anonymous
Location: Unspecified
(0.0000°N, 0.0000°E)
Time: 10:17:36
(UTC+02:00)
Language:

AO-40 - Orbit

View from above orbital plane
View from above orbital plane
View from above satellite
View from above satellite

Ground track
Ground track

The orbit data is extracted from the following two-line orbital elements,

1 26609U 00072B   14207.96992776 -.00000309  00000-0  00000+0 0  9926
2 26609 008.2623 041.8285 7938113 133.0206 327.9197 01.25586375 63077
Epoch (UTC): 26 July 2014 23:16:41
Eccentricity: 0.7938113
inclination: 8.2623°
perigee height: 1104 km
apogee height: 58716 km
right ascension of ascending node: 41.8285°
argument of perigee: 133.0206°
revolutions per day: 1.25586375
mean anomaly at epoch: 327.9197°
orbit number at epoch: 6307

The dashed part of the orbit path shows where the satellite is in the earth's shadow,  

DLR